Location: Escondido Hill
(38.9119°N, 104.7815°W)
Time: 02:15:41
(UTC-07:00)

N. Korean satellite - Visible Passes

Search period start: 23 January 2019 00:00
Search period end: 02 February 2019 00:00
Orbit: 458 x 509 km, 97.2° (Epoch: 22 January)

Date Brightness Start Highest point End Pass type
(mag) Time Alt. Az. Time Alt. Az. Time Alt. Az.
23 Jan 6.9 06:07:15 10° NNE 06:10:55 72° ESE 06:14:31 10° S visible
23 Jan 9.5 18:15:35 10° SW 18:18:25 21° W 18:21:18 10° NW visible
24 Jan 8.6 05:42:52 10° NNE 05:46:12 32° E 05:49:28 10° SSE visible
24 Jan 8.0 17:50:09 10° S 17:53:39 43° W 17:57:13 10° NNW visible
25 Jan 9.8 05:19:05 10° NE 05:21:23 16° E 05:23:40 10° SE visible
26 Jan 6.6 06:26:41 10° N 06:30:18 60° WNW 06:33:50 10° SSW visible
26 Jan 10.2 18:36:27 10° WSW 18:37:59 12° W 18:39:31 10° WNW visible
27 Jan 7.2 06:02:02 10° NNE 06:05:39 60° E 06:09:10 10° S visible
27 Jan 9.3 18:10:05 10° SSW 18:13:08 24° W 18:16:13 10° NW visible
28 Jan 8.9 05:37:45 10° NE 05:40:54 27° E 05:43:59 10° SSE visible
28 Jan 7.7 17:44:47 10° S 17:48:23 51° W 17:52:02 10° NNW visible
29 Jan 10.0 05:14:12 10° ENE 05:16:03 14° E 05:17:54 10° ESE visible
30 Jan 6.5 06:21:24 10° N 06:25:01 70° WNW 06:28:33 10° SSW visible
30 Jan 10.1 18:30:37 10° SW 18:32:39 14° W 18:34:42 10° WNW visible
31 Jan 7.5 05:56:48 10° NNE 06:00:20 50° E 06:03:47 10° S visible
31 Jan 9.1 18:04:36 10° SSW 18:07:49 28° W 18:11:05 10° NW visible
01 Feb 9.2 05:32:37 10° NE 05:35:34 23° E 05:38:27 10° SSE visible
